[[{"header":{"parameterUnit":"m.s-1","parameterCategory":1,"la1":30.2992,"la2":30.254,"lo1":-89.0895,"lo2":-89.0443,"dy":0.0025,"dx":0.0025,"nx":19,"ny":19,"refTime":"2026-05-14T03:00:00:Z","depth":0,"parameterNumber":2,"parameterNumberName":"U-component_of_WINDS"},"data":[0,0,0,-5.1304,-5.1306,-5.1362,-5.1362,-5.148,-5.1481,0,0,0,0,0,0,0,0,0,0,0,-5.1315,-5.1317,-5.1304,-5.1306,-5.1362,-5.1362,-5.148,-5.1481,0,0,0,0,0,0,0,0,0,0,0,-5.1315,-5.1317,-5.1319,-5.1306,-5.1362,-5.1362,-5.1479,-5.142,0,0,0,0,0,0,0,0,0,0,-5.1357,-5.1396,-5.1316,-5.1319,-5.1307,-5.1362,-5.1362,-5.1417,-5.1424,-5.1474,0,-5.1527,0,-5.1507,-5.1492,-5.1493,0,0,0,-5.1284,-5.139,-5.138,-5.1319,-5.1308,-5.1362,-5.1331,-5.142,-5.1429,-5.1484,-5.1528,-5.1531,-5.1509,-5.1493,-5.1494,-5.1856,-5.1858,0,0,-5.1281,-5.1341,-5.1375,-5.1387,-5.1382,-5.1329,-5.1333,-5.1425,-5.1476,-5.1528,-5.1533,-5.151,-5.1494,-5.1496,-5.1853,-5.1857,0,0,0,-5.1287,-5.134,-5.1326,-5.1383,-5.139,-5.1331,-5.1336,-5.1472,-5.1463,-5.1534,-5.1512,-5.1495,-5.1497,-5.185,-5.1854,-5.2043,0,0,0,-5.1284,-5.1342,-5.1326,-5.1362,-5.139,-5.1432,-5.1382,-5.1456,-5.1465,-5.1511,-5.1495,-5.1499,-5.1847,-5.1852,-5.2032,-5.2122,0,0,0,-5.1302,-5.1344,-5.1362,-5.1365,-5.1392,-5.1429,-5.1424,-5.1457,-5.1453,-5.1493,-5.1499,-5.1845,-5.1851,-5.2021,-5.2105,-5.2232,0,0,0,-5.1338,-5.153,-5.1366,-5.1572,-5.1392,-5.1547,-5.1423,-5.1535,-5.1593,-5.1496,-5.1848,-5.1854,-5.2018,-5.2094,-5.2222,-5.2349,-5.2408,0,0,-5.1613,-5.1565,-5.1682,-5.1537,-5.1736,-5.1534,-5.176,-5.1756,-5.1706,-5.1809,-5.1817,-5.2036,-5.2103,-5.223,-5.2725,-5.2773,0,0,0,-5.1789,-5.1873,-5.1913,-5.1971,-5.1974,-5.1983,-5.1939,-5.1937,-5.2021,-5.1772,-5.2116,-5.2155,-5.2227,-5.2284,-5.2325,-5.2381,-5.1884,-5.1884,-5.1883,-5.2261,-5.2187,-5.2373,-5.2307,-5.2365,-5.2318,-5.2358,-5.2348,-5.2256,-5.2339,-5.2368,-5.2677,-5.2747,-5.2777,-5.2837,-5.2432,-5.2432,-5.2433,-5.2434,-5.2654,-5.2759,-5.2635,-5.2771,-5.2692,-5.2805,-5.2768,-5.27,-5.2793,-5.265,-5.2709,-5.2556,-5.2832,-5.288,-5.2447,-5.2445,-5.2443,-5.2442,-5.2441,-5.2951,-5.2989,-5.2985,-5.3061,-5.3129,-5.3055,-5.315,-5.3075,-5.3006,-5.3065,-5.3085,-5.3082,-5.3066,-5.3081,-5.3082,-5.3083,-5.3084,-5.3085,-5.3085,-5.3259,-5.3249,-5.3339,-5.336,-5.3386,-5.3413,-5.337,-5.3394,-5.3402,-5.3339,-5.3339,-5.3238,-5.2874,-5.2782,-5.3102,-5.3099,-5.3097,-5.3095,-5.3094,-5.3678,-5.3572,-5.371,-5.3738,-5.3755,-5.3826,-5.3732,-5.3788,-5.3798,-5.3847,-5.3735,-5.3479,-5.3424,-5.3391,-5.3314,-5.3752,-5.3752,-5.3752,-5.3752,-5.3926,-5.3892,-5.4016,-5.4065,-5.4105,-5.4033,-5.4191,-5.4161,-5.4112,-5.4113,-5.404,-5.3933,-5.3903,-5.3865,-5.3822,-5.3749,-5.4288,-5.4288,-5.4288,-5.4178,-5.4145,-5.4293,-5.4244,-5.4253,-5.4262,-5.4408,-5.4468,-5.4391,-5.4309,-5.4111,-5.4089,-5.3915,-5.3863,-5.3772,-5.3707,-5.3571,0,0]},{"header":{"parameterUnit":"m.s-1","parameterCategory":1,"la1":30.2992,"la2":30.254,"lo1":-89.0895,"lo2":-89.0443,"dy":0.0025,"dx":0.0025,"nx":19,"ny":19,"refTime":"2026-05-14T03:00:00:Z","depth":0,"parameterNumber":3,"parameterNumberName":"V-component_of_WINDS"},"data":[0,0,0,0.788,0.7879,0.7841,0.7841,0.781,0.781,0,0,0,0,0,0,0,0,0,0,0,0.7902,0.7903,0.788,0.7879,0.7841,0.7841,0.781,0.781,0,0,0,0,0,0,0,0,0,0,0,0.7902,0.7902,0.7903,0.7879,0.7841,0.7841,0.781,0.7832,0,0,0,0,0,0,0,0,0,0,0.7866,0.7898,0.7902,0.7903,0.7879,0.7841,0.7841,0.7833,0.7831,0.7835,0,0.7842,0,0.7826,0.7809,0.7809,0,0,0,0.787,0.79,0.788,0.7903,0.7879,0.7841,0.7856,0.7832,0.7829,0.7833,0.7842,0.784,0.7825,0.7809,0.7809,0.7866,0.7867,0,0,0.7873,0.7901,0.7882,0.7879,0.7886,0.7857,0.7855,0.783,0.7841,0.7842,0.7839,0.7825,0.7809,0.7809,0.7866,0.7866,0,0,0,0.7885,0.7903,0.7883,0.7881,0.7872,0.7856,0.7853,0.7842,0.7834,0.7839,0.7825,0.7809,0.7809,0.7865,0.7866,0.7928,0,0,0,0.7885,0.791,0.7884,0.7901,0.7873,0.7857,0.7867,0.7835,0.7832,0.7825,0.7809,0.7808,0.7864,0.7865,0.7925,0.7952,0,0,0,0.7901,0.7912,0.791,0.7903,0.7888,0.7857,0.7846,0.7834,0.7824,0.7809,0.7808,0.7863,0.7865,0.7922,0.7947,0.7977,0,0,0,0.7925,0.7964,0.7912,0.795,0.7888,0.7896,0.7846,0.785,0.7845,0.7809,0.7864,0.7866,0.7921,0.7944,0.7974,0.8007,0.8024,0,0,0.799,0.7973,0.7993,0.7945,0.797,0.79,0.7933,0.79,0.7872,0.787,0.7871,0.7926,0.7947,0.7977,0.8107,0.812,0,0,0,0.8023,0.8038,0.8039,0.8036,0.8014,0.7997,0.7956,0.7945,0.7942,0.7877,0.7944,0.7955,0.7971,0.7986,0.7997,0.801,0.7874,0.7874,0.7873,0.8155,0.8119,0.815,0.8111,0.8109,0.8069,0.8064,0.8042,0.8003,0.8021,0.8019,0.8103,0.8121,0.8129,0.8143,0.8034,0.8034,0.8034,0.8034,0.8246,0.8262,0.8215,0.8228,0.819,0.8201,0.8165,0.8139,0.8143,0.81,0.8112,0.8068,0.8145,0.8155,0.8039,0.8038,0.8037,0.8037,0.8037,0.8328,0.833,0.8317,0.8312,0.8312,0.827,0.8278,0.8243,0.8209,0.8222,0.8218,0.8216,0.8211,0.8222,0.8223,0.8223,0.8223,0.8224,0.8224,0.8419,0.8402,0.8413,0.8395,0.8391,0.838,0.8343,0.8337,0.8322,0.8295,0.8295,0.8257,0.816,0.8137,0.8228,0.8227,0.8227,0.8226,0.8226,0.8525,0.8496,0.8513,0.8509,0.8487,0.8491,0.8447,0.8439,0.8429,0.8435,0.8395,0.8329,0.8308,0.8299,0.8279,0.8402,0.8402,0.8402,0.8402,0.8594,0.8581,0.8592,0.8588,0.858,0.8544,0.8566,0.8539,0.8506,0.8498,0.8475,0.8446,0.8439,0.8422,0.841,0.8391,0.854,0.854,0.854,0.8657,0.8643,0.8668,0.8637,0.8618,0.8602,0.8623,0.8621,0.8577,0.8545,0.8491,0.8485,0.8438,0.8425,0.839,0.8372,0.8337,0,0]}]]